Terug naar catalogus

ATLAS 5 CENTAUR DEB

ActiefHEO
NORAD 46668·DEBRIS·🇺🇸 United States

Gelanceerd Oct 17, 2018 vanaf Cape Canaveral Space Force Station

Loading…

Volgende Passages (komende 24 uur)

TLE

VersSource: Space-Track

Epoch: Sep 14, 2026, 10:41 UTC

1 46668U 18079CW  26257.44568377 -.00000175  00000-0  00000-0 0  9995
2 46668  13.3655  25.6104 4657913 336.8796   7.5428  1.83703400 39813

Volg ATLAS 5 CENTAUR DEB in realtime met AllMySat

Download on the App Store